Tracking 17264 objects as of 30-August-2015
HD Live streaming from Space Station

GLOBALSTAR M082

Track GLOBALSTAR M082 now!
10-day predictions
GLOBALSTAR M082 is classified as:


NORAD ID: 38042
Int'l Code: 2011-080C
Perigee: 1,420.1 km
Apogee: 1,421.4 km
Inclination: 52.0 °
Period: 114.1 minutes
Semi major axis: 7791 km
RCS: 4.8173 m2 (large)
Launch date: December 28, 2011
Source: Globalstar (GLOB)
Your satellite tracking list
Your tracking list is empty





NASA's NSSDC Master Catalog

Two Line Element Set (TLE):
1 38042U 11080C   15241.08360515 -.00000086  00000-0  97445-4 0  9996
2 38042 052.0070 103.1809 0000818 045.2712 047.2135 12.62267254171540

Source of the keplerian elements: AFSPC

N2YO: 337